Location: Gull Harbor
(47.1000°N, 122.9000°W)
Time: 17:52:13
(UTC-08:00)

BlueWalker 3 - Pass Details

Date: 19 December 2025
Orbit: 452 x 463 km, 53.2° (Epoch: 13 January)

Event Time Altitude Azimuth Distance (km) Brightness Sun altitude
Rises 06:34:27 0° 197° (SSW) 2,448 5.5 -12.8°
Reaches altitude 10° 06:37:03 10° 177° (S) 1,583 4.8 -12.4°
Maximum altitude 06:39:30 18° 133° (SE) 1,190 4.9 -12.0°
Drops below altitude 10° 06:42:00 10° 89° (E) 1,596 5.7 -11.6°
Sets 06:44:37 0° 70° (ENE) 2,477 6.3 -11.2°
